Terminal Aerodrome Forecast
Issued by NWS Charleston, WV

Current Version | Previous Version | Graphics & Text | Print | Product List | Glossary On
Versions: 1 2 3 4 5 6 7 8 9 10 11 12 13 14 15 16 17 18 19 20 21 22 23 24 25
000
FTUS41 KRLX 032336
TAFHTS
TAF
KHTS 032336Z 0400/0424 30004KT P6SM BKN035
     FM040500 00000KT 6SM BR SCT040
     FM040900 00000KT 5SM BR BKN025
     FM041300 00000KT 6SM BR BKN025
     FM041400 23006KT P6SM BKN040
     FM041800 24007KT P6SM SHRA VCTS BKN040CB
     FM042100 24007KT 5SM SHRA BR VCTS OVC040CB
     FM042300 25006KT P6SM SHRA VCTS OVC025CB=

USA.gov is the U.S. government's official web portal to all federal, state and local government web resources and services.